Voltar ao catálogo

CZ-6A DEB

AtivoSSO
NORAD 54401·DEBRIS·🇨🇳 China

Lançado Nov 11, 2022 de Taiyuan Satellite Launch Center

Loading…

Próximas Passagens (próximas 24 horas)

TLE

AtualizadoSource: Space-Track

Época: Sep 14, 2026, 11:09 UTC

1 54401U 22151DZ  26257.46488309  .00001375  00000-0  49649-3 0  9990
2 54401  98.6612 256.3536 0111702 236.7578 122.2861 14.31794776199244

Acompanhe CZ-6A DEB em tempo real com AllMySat

Download on the App Store